,,,PA_Meas_PMT16A,,PR_Meas_QMR101_102,,RH_Meas_QMH101,,SR_Meas_QMS101,,TA_Meas_QMH101,,GenWind,,GenWind,
date,time,status,PA,status,PR,status,RH,status,SR,status,TA,status,DirAvg,status,SpdAvg,
2010-01-01, 00:00:04,VALID,1002.97,VALID,0,VALID,87.5338,VALID,0,VALID,25.4558,VALID,324,VALID,0.35625,
2010-01-01, 00:01:04,VALID,1002.92,VALID,0,VALID,87.7245,VALID,0,VALID,25.4169,VALID,324,VALID,0.321484,
2010-01-01, 00:02:04,VALID,1002.95,VALID,0,VALID,87.9686,VALID,0,VALID,25.3584,VALID,324,VALID,0.206641,
2010-01-01, 00:03:04,VALID,1002.93,VALID,0,VALID,88.0907,VALID,0,VALID,25.339,VALID,330,VALID,0,
2010-01-01, 00:04:04,VALID,1002.93,VALID,0,VALID,88.1365,VALID,0,VALID,25.3195,VALID,357,VALID,0,
2010-01-01, 00:05:04,VALID,1002.92,VALID,0,VALID,88.2738,VALID,0,VALID,25.3195,VALID,359,VALID,0,
2010-01-01, 00:06:04,VALID,1002.9,VALID,0,VALID,88.4035,VALID,0,VALID,25.2806,VALID,359,VALID,0,
2010-01-01, 00:07:04,VALID,1002.89,VALID,0,VALID,88.6018,VALID,0,VALID,25.2416,VALID,359,VALID,0,
2010-01-01, 00:08:04,VALID,1002.86,VALID,0,VALID,88.7544,VALID,0,VALID,25.2007,VALID,359,VALID,0,
2010-01-01, 00:09:04,VALID,1002.84,VALID,0,VALID,88.9985,VALID,0,VALID,25.1637,VALID,359,VALID,0,
2010-01-01, 00:10:04,VALID,1002.84,VALID,0,VALID,89.3723,VALID,0,VALID,25.1053,VALID,359,VALID,0,
2010-01-01, 00:11:04,VALID,1002.84,VALID,0,VALID,89.6393,VALID,0,VALID,25.006,VALID,359,VALID,0,
2010-01-01, 00:12:04,VALID,1002.84,VALID,0,VALID,90.0513,VALID,0,VALID,24.9885,VALID,356,VALID,0,
2010-01-01, 00:13:04,VALID,1002.83,VALID,0,VALID,90.3336,VALID,0,VALID,24.93,VALID,356,VALID,0,
2010-01-01, 00:14:04,VALID,1002.83,VALID,0,VALID,90.6082,VALID,0,VALID,24.8716,VALID,356,VALID,0,
2010-01-01, 00:15:04,VALID,1002.84,VALID,0,VALID,90.8066,VALID,0,VALID,24.8522,VALID,356,VALID,0,
2010-01-01, 00:16:04,VALID,1002.8,VALID,0,VALID,90.9515,VALID,0,VALID,24.7937,VALID,356,VALID,0,
2010-01-01, 00:17:04,VALID,1002.79,VALID,0,VALID,91.1804,VALID,0,VALID,24.7529,VALID,356,VALID,0,
2010-01-01, 00:18:04,VALID,1002.79,VALID,0,VALID,91.4474,VALID,0,VALID,24.714,VALID,356,VALID,0,
2010-01-01, 00:19:04,VALID,1002.78,VALID,0,VALID,91.6991,VALID,0,VALID,24.675,VALID,356,VALID,0,
2010-01-01, 00:20:04,VALID,1002.79,VALID,0,VALID,91.9128,VALID,0,VALID,24.6574,VALID,356,VALID,0,
2010-01-01, 00:21:04,VALID,1002.74,VALID,0,VALID,92.0348,VALID,0,VALID,24.638,VALID,356,VALID,0,
2010-01-01, 00:22:04,VALID,1002.78,VALID,0,VALID,92.1645,VALID,0,VALID,24.599,VALID,356,VALID,0,
2010-01-01, 00:23:04,VALID,1002.75,VALID,0,VALID,92.3323,VALID,0,VALID,24.5796,VALID,356,VALID,0,
2010-01-01, 00:24:04,VALID,1002.73,VALID,0,VALID,92.5002,VALID,0,VALID,24.5582,VALID,356,VALID,0,
2010-01-01, 00:25:04,VALID,1002.7,VALID,0,VALID,92.5765,VALID,0,VALID,24.5406,VALID,356,VALID,0,
2010-01-01, 00:26:04,VALID,1002.69,VALID,0,VALID,92.6528,VALID,0,VALID,24.5212,VALID,356,VALID,0,
2010-01-01, 00:27:04,VALID,1002.66,VALID,0,VALID,92.7596,VALID,0,VALID,24.5017,VALID,356,VALID,0,
2010-01-01, 00:28:04,VALID,1002.64,VALID,0,VALID,92.8358,VALID,0,VALID,24.4822,VALID,357,VALID,0,
2010-01-01, 00:29:04,VALID,1002.62,VALID,0,VALID,92.9884,VALID,0,VALID,24.4822,VALID,356,VALID,0,
2010-01-01, 00:30:04,VALID,1002.6,VALID,0,VALID,93.0876,VALID,0,VALID,24.4609,VALID,356,VALID,0,
2010-01-01, 00:31:04,VALID,1002.58,VALID,0,VALID,93.1257,VALID,0,VALID,24.4628,VALID,357,VALID,0,
2010-01-01, 00:32:04,VALID,1002.55,VALID,0,VALID,93.1868,VALID,0,VALID,24.4628,VALID,356,VALID,0,
2010-01-01, 00:33:04,VALID,1002.51,VALID,0,VALID,93.2478,VALID,0,VALID,24.4841,VALID,356,VALID,0,
2010-01-01, 00:34:04,VALID,1002.45,VALID,0,VALID,93.2707,VALID,0,VALID,24.4841,VALID,356,VALID,0,
2010-01-01, 00:35:04,VALID,1002.42,VALID,0,VALID,93.2936,VALID,0,VALID,24.4628,VALID,356,VALID,0,
2010-01-01, 00:36:04,VALID,1002.39,VALID,0,VALID,93.3088,VALID,0,VALID,24.4841,VALID,357,VALID,0,
2010-01-01, 00:37:04,VALID,1002.37,VALID,0,VALID,93.3165,VALID,0,VALID,24.4628,VALID,356,VALID,0,
2010-01-01, 00:38:04,VALID,1002.35,VALID,0,VALID,93.2859,VALID,0,VALID,24.4433,VALID,356,VALID,0,
2010-01-01, 00:39:04,VALID,1002.3,VALID,0,VALID,93.2554,VALID,0,VALID,24.4238,VALID,357,VALID,0,
2010-01-01, 00:40:04,VALID,1002.31,VALID,0,VALID,93.2707,VALID,0,VALID,24.4238,VALID,357,VALID,0,
2010-01-01, 00:41:04,VALID,1002.27,VALID,0,VALID,93.3012,VALID,0,VALID,24.4238,VALID,357,VALID,0,
2010-01-01, 00:42:04,VALID,1002.27,VALID,0,VALID,93.3088,VALID,0,VALID,24.4043,VALID,356,VALID,0,
2010-01-01, 00:43:04,VALID,1002.26,VALID,0,VALID,93.3622,VALID,0,VALID,24.4025,VALID,357,VALID,0,
2010-01-01, 00:44:04,VALID,1002.2,VALID,0,VALID,93.3851,VALID,0,VALID,24.4043,VALID,357,VALID,0,
2010-01-01, 00:45:04,VALID,1002.16,VALID,0,VALID,93.3928,VALID,0,VALID,24.3636,VALID,356,VALID,0,
2010-01-01, 00:46:04,VALID,1002.14,VALID,0,VALID,93.3699,VALID,0,VALID,24.3636,VALID,357,VALID,0,
2010-01-01, 00:47:04,VALID,1002.12,VALID,0,VALID,93.3699,VALID,0,VALID,24.3654,VALID,357,VALID,0,
2010-01-01, 00:48:04,VALID,1002.12,VALID,0,VALID,93.3775,VALID,0,VALID,24.3246,VALID,357,VALID,0,
2010-01-01, 00:49:04,VALID,1002.09,VALID,0,VALID,93.3851,VALID,0,VALID,24.3459,VALID,356,VALID,0,
2010-01-01, 00:50:04,VALID,1002.09,VALID,0,VALID,93.3928,VALID,0,VALID,24.3052,VALID,356,VALID,0,
2010-01-01, 00:51:04,VALID,1002.1,VALID,0,VALID,93.408,VALID,0,VALID,24.2857,VALID,357,VALID,0,
2010-01-01, 00:52:04,VALID,1002.09,VALID,0,VALID,93.4462,VALID,0,VALID,24.307,VALID,356,VALID,0,
2010-01-01, 00:53:04,VALID,1002.07,VALID,0,VALID,93.4309,VALID,0,VALID,24.307,VALID,356,VALID,0,
2010-01-01, 00:54:04,VALID,1002.06,VALID,0,VALID,93.4538,VALID,0,VALID,24.2857,VALID,356,VALID,0,
2010-01-01, 00:55:04,VALID,1002.05,VALID,0,VALID,93.4614,VALID,0,VALID,24.2857,VALID,356,VALID,0,
2010-01-01, 00:56:04,VALID,1002.07,VALID,0,VALID,93.4156,VALID,0,VALID,24.307,VALID,356,VALID,0,
2010-01-01, 00:57:04,VALID,1002.06,VALID,0,VALID,93.3928,VALID,0,VALID,24.3052,VALID,356,VALID,0,
2010-01-01, 00:58:04,VALID,1002.07,VALID,0,VALID,93.3622,VALID,0,VALID,24.307,VALID,356,VALID,0,
2010-01-01, 00:59:04,VALID,1002.1,VALID,0,VALID,93.3546,VALID,0,VALID,24.3265,VALID,356,VALID,0,
2010-01-01, 01:00:04,VALID,1002.08,VALID,0,VALID,93.347,VALID,0,VALID,24.3052,VALID,356,VALID,0,
2010-01-01, 01:01:04,VALID,1002.08,VALID,0,VALID,93.3699,VALID,0,VALID,24.2857,VALID,356,VALID,0,
2010-01-01, 01:02:04,VALID,1002.07,VALID,0,VALID,93.3851,VALID,0,VALID,24.2662,VALID,356,VALID,0,
2010-01-01, 01:03:04,VALID,1002.06,VALID,0,VALID,93.3775,VALID,0,VALID,24.2468,VALID,356,VALID,0,
2010-01-01, 01:04:04,VALID,1002.05,VALID,0,VALID,93.4309,VALID,0,VALID,24.2078,VALID,357,VALID,0,
2010-01-01, 01:05:04,VALID,1002.05,VALID,0,VALID,93.469,VALID,0,VALID,24.2291,VALID,356,VALID,0,
2010-01-01, 01:06:04,VALID,1002.03,VALID,0,VALID,93.4919,VALID,0,VALID,24.2273,VALID,356,VALID,0,
2010-01-01, 01:07:04,VALID,1002.05,VALID,0,VALID,93.5072,VALID,0.100563,VALID,24.2681,VALID,352,VALID,0,
2010-01-01, 01:08:04,VALID,1002.06,VALID,0,VALID,93.469,VALID,0,VALID,24.2468,VALID,352,VALID,0,
2010-01-01, 01:09:04,VALID,1002.06,VALID,0,VALID,93.4156,VALID,0,VALID,24.2468,VALID,352,VALID,0,
2010-01-01, 01:10:04,VALID,1002.05,VALID,0,VALID,93.3851,VALID,0,VALID,24.2662,VALID,352,VALID,0,
2010-01-01, 01:11:04,VALID,1002.03,VALID,0,VALID,93.3317,VALID,0,VALID,24.2857,VALID,352,VALID,0,
2010-01-01, 01:12:04,VALID,1002.05,VALID,0,VALID,93.3088,VALID,0,VALID,24.3265,VALID,352,VALID,0,
2010-01-01, 01:13:04,VALID,1002.07,VALID,0,VALID,93.2325,VALID,0,VALID,24.3246,VALID,352,VALID,0,
2010-01-01, 01:14:04,VALID,1002.02,VALID,0,VALID,93.1257,VALID,0,VALID,24.3654,VALID,352,VALID,0,
2010-01-01, 01:15:04,VALID,1002.06,VALID,0,VALID,92.9961,VALID,0,VALID,24.4043,VALID,352,VALID,0,
2010-01-01, 01:16:04,VALID,1002.03,VALID,0,VALID,92.8664,VALID,0.100563,VALID,24.383,VALID,352,VALID,0,
2010-01-01, 01:17:04,VALID,1002.04,VALID,0,VALID,92.7596,VALID,0,VALID,24.422,VALID,352,VALID,0,
2010-01-01, 01:18:04,VALID,1002.01,VALID,0,VALID,92.7138,VALID,0,VALID,24.4609,VALID,352,VALID,0,
2010-01-01, 01:19:04,VALID,1001.99,VALID,0,VALID,92.5993,VALID,0,VALID,24.4998,VALID,2,VALID,0,
2010-01-01, 01:20:04,VALID,1001.96,VALID,0,VALID,92.4468,VALID,0,VALID,24.4998,VALID,359,VALID,0,
2010-01-01, 01:21:04,VALID,1001.93,VALID,0,VALID,92.2942,VALID,0,VALID,24.5388,VALID,13,VALID,0.46875,
2010-01-01, 01:22:04,VALID,1001.92,VALID,0,VALID,92.1416,VALID,0,VALID,24.638,VALID,24,VALID,0.748047,
2010-01-01, 01:23:04,VALID,1001.91,VALID,0,VALID,91.5389,VALID,0,VALID,24.7121,VALID,6,VALID,0.936328,
2010-01-01, 01:24:04,VALID,1001.9,VALID,0,VALID,90.6845,VALID,0,VALID,24.8503,VALID,21,VALID,1.37891,
2010-01-01, 01:25:04,VALID,1001.89,VALID,0,VALID,90.0589,VALID,0,VALID,24.9885,VALID,10,VALID,0.662891,
2010-01-01, 01:26:04,VALID,1001.86,VALID,0,VALID,89.441,VALID,0,VALID,25.045,VALID,14,VALID,1.42656,
2010-01-01, 01:27:04,VALID,1001.87,VALID,0,VALID,88.7391,VALID,0,VALID,25.1813,VALID,344,VALID,0.727734,
2010-01-01, 01:28:04,VALID,1001.88,VALID,0,VALID,88.3043,VALID,0,VALID,25.2397,VALID,6,VALID,0.721484,
2010-01-01, 01:29:04,VALID,1001.88,VALID,0,VALID,88.0754,VALID,0,VALID,25.2806,VALID,11,VALID,0.85,
2010-01-01, 01:30:04,VALID,1001.89,VALID,0,VALID,87.8389,VALID,0,VALID,25.2786,VALID,356,VALID,0.837891,
2010-01-01, 01:31:04,VALID,1001.87,VALID,0,VALID,87.7626,VALID,0,VALID,25.2981,VALID,356,VALID,0.748828,
2010-01-01, 01:32:04,VALID,1001.86,VALID,0,VALID,87.4727,VALID,0,VALID,25.3176,VALID,354,VALID,1.16797,
2010-01-01, 01:33:04,VALID,1001.83,VALID,0,VALID,87.1828,VALID,0.100563,VALID,25.3565,VALID,348,VALID,0.543359,
2010-01-01, 01:34:04,VALID,1001.81,VALID,0,VALID,87.2057,VALID,0,VALID,25.3565,VALID,346,VALID,0.514844,
2010-01-01, 01:35:04,VALID,1001.78,VALID,0,VALID,87.0684,VALID,0,VALID,25.3565,VALID,341,VALID,0.380078,
2010-01-01, 01:36:04,VALID,1001.77,VALID,0,VALID,87.0989,VALID,0,VALID,25.337,VALID,341,VALID,0.33125,
2010-01-01, 01:37:04,VALID,1001.75,VALID,0,VALID,87.0532,VALID,0.100563,VALID,25.3176,VALID,353,VALID,0.840234,
2010-01-01, 01:38:04,VALID,1001.76,VALID,0,VALID,87.1142,VALID,0,VALID,25.3176,VALID,331,VALID,0.530469,
2010-01-01, 01:39:04,VALID,1001.76,VALID,0,VALID,87.343,VALID,0,VALID,25.2981,VALID,357,VALID,0.508203,
2010-01-01, 01:40:04,VALID,1001.75,VALID,0,VALID,87.4727,VALID,0,VALID,25.2786,VALID,356,VALID,0.572656,
2010-01-01, 01:41:04,VALID,1001.77,VALID,0,VALID,87.6635,VALID,0,VALID,25.2806,VALID,1,VALID,0.526172,
2010-01-01, 01:42:04,VALID,1001.76,VALID,0,VALID,87.8694,VALID,0,VALID,25.2806,VALID,6,VALID,0.665625,
2010-01-01, 01:43:04,VALID,1001.78,VALID,0,VALID,88.0907,VALID,0,VALID,25.3195,VALID,352,VALID,0.913672,
2010-01-01, 01:44:04,VALID,1001.77,VALID,0,VALID,88.022,VALID,0.100563,VALID,25.3176,VALID,348,VALID,0.667578,
2010-01-01, 01:45:04,VALID,1001.77,VALID,0,VALID,87.816,VALID,0,VALID,25.376,VALID,10,VALID,0.821484,
2010-01-01, 01:46:04,VALID,1001.76,VALID,0,VALID,87.6329,VALID,0,VALID,25.3955,VALID,13,VALID,0.59375,
2010-01-01, 01:47:04,VALID,1001.74,VALID,0,VALID,87.4804,VALID,0,VALID,25.4169,VALID,13,VALID,0.152344,
2010-01-01, 01:48:04,VALID,1001.74,VALID,0,VALID,87.4956,VALID,0.100563,VALID,25.4169,VALID,359,VALID,0.141016,
2010-01-01, 01:49:04,VALID,1001.71,VALID,0,VALID,87.3965,VALID,0,VALID,25.4149,VALID,17,VALID,0.867578,
2010-01-01, 01:50:04,VALID,1001.72,VALID,0,VALID,87.3049,VALID,0,VALID,25.4344,VALID,346,VALID,0.439063,
2010-01-01, 01:51:04,VALID,1001.71,VALID,0,VALID,87.2744,VALID,0,VALID,25.4558,VALID,348,VALID,0.36875,
2010-01-01, 01:52:04,VALID,1001.7,VALID,0,VALID,87.221,VALID,0,VALID,25.4558,VALID,9,VALID,0.60625,
2010-01-01, 01:53:04,VALID,1001.68,VALID,0,VALID,87.2515,VALID,0,VALID,25.4539,VALID,50,VALID,0.374219,
2010-01-01, 01:54:04,VALID,1001.66,VALID,0,VALID,87.3049,VALID,0,VALID,25.4753,VALID,36,VALID,0.320703,
2010-01-01, 01:55:04,VALID,1001.63,VALID,0,VALID,87.4346,VALID,0,VALID,25.4344,VALID,347,VALID,1.15,
2010-01-01, 01:56:04,VALID,1001.63,VALID,0,VALID,87.4499,VALID,0,VALID,25.4539,VALID,11,VALID,0.612109,
2010-01-01, 01:57:04,VALID,1001.61,VALID,0,VALID,87.5719,VALID,0,VALID,25.4734,VALID,349,VALID,0.497266,
2010-01-01, 01:58:04,VALID,1001.61,VALID,0,VALID,87.5261,VALID,0,VALID,25.4734,VALID,350,VALID,0.198437,
2010-01-01, 01:59:04,VALID,1001.58,VALID,0,VALID,87.5261,VALID,0,VALID,25.4539,VALID,351,VALID,0.596875,
2010-01-01, 02:00:04,VALID,1001.58,VALID,0,VALID,87.6558,VALID,0,VALID,25.4539,VALID,2,VALID,1.08789,
2010-01-01, 02:01:04,VALID,1001.58,VALID,0,VALID,87.7779,VALID,0,VALID,25.4344,VALID,22,VALID,0.413281,
2010-01-01, 02:02:04,VALID,1001.55,VALID,0,VALID,87.8694,VALID,0,VALID,25.4344,VALID,18,VALID,1.06836,
2010-01-01, 02:03:04,VALID,1001.55,VALID,0,VALID,87.9,VALID,0,VALID,25.4539,VALID,7,VALID,0.532031,
2010-01-01, 02:04:04,VALID,1001.55,VALID,0,VALID,87.8771,VALID,0,VALID,25.4753,VALID,358,VALID,0.938281,
2010-01-01, 02:05:04,VALID,1001.5,VALID,0,VALID,87.816,VALID,0,VALID,25.4928,VALID,359,VALID,1.08633,
2010-01-01, 02:06:04,VALID,1001.52,VALID,0,VALID,87.6253,VALID,0,VALID,25.5532,VALID,17,VALID,1.16484,
2010-01-01, 02:07:04,VALID,1001.51,VALID,0,VALID,87.5795,VALID,0,VALID,25.5707,VALID,8,VALID,0.850391,
2010-01-01, 02:08:04,VALID,1001.49,VALID,0,VALID,87.488,VALID,0,VALID,25.5921,VALID,3,VALID,0.270703,
2010-01-01, 02:09:04,VALID,1001.5,VALID,0,VALID,87.4956,VALID,0,VALID,25.5727,VALID,3,VALID,0.040625,
2010-01-01, 02:10:04,VALID,1001.48,VALID,0,VALID,87.5338,VALID,0,VALID,25.5532,VALID,334,VALID,0.203516,
2010-01-01, 02:11:04,VALID,1001.5,VALID,0,VALID,87.6253,VALID,0,VALID,25.4928,VALID,332,VALID,0.416797,
2010-01-01, 02:12:04,VALID,1001.51,VALID,0,VALID,87.7855,VALID,0,VALID,25.5162,VALID,355,VALID,0.351563,
2010-01-01, 02:13:04,VALID,1001.5,VALID,0,VALID,87.7855,VALID,0,VALID,25.4753,VALID,355,VALID,0.00703125,
2010-01-01, 02:14:04,VALID,1001.53,VALID,0,VALID,87.8694,VALID,0,VALID,25.4558,VALID,355,VALID,0.417969,
2010-01-01, 02:15:04,VALID,1001.49,VALID,0,VALID,87.9457,VALID,0,VALID,25.4558,VALID,355,VALID,0.219531,
2010-01-01, 02:16:04,VALID,1001.5,VALID,0,VALID,88.0831,VALID,0,VALID,25.4558,VALID,4,VALID,0.571094,
2010-01-01, 02:17:04,VALID,1001.5,VALID,0,VALID,88.2127,VALID,0,VALID,25.4149,VALID,359,VALID,0.427734,
2010-01-01, 02:18:04,VALID,1001.5,VALID,0,VALID,88.2738,VALID,0,VALID,25.4363,VALID,344,VALID,0.464063,
2010-01-01, 02:19:04,VALID,1001.49,VALID,0,VALID,88.3272,VALID,0,VALID,25.4149,VALID,350,VALID,0.568359,
2010-01-01, 02:20:04,VALID,1001.5,VALID,0,VALID,88.495,VALID,0,VALID,25.3974,VALID,353,VALID,0.925,
2010-01-01, 02:21:04,VALID,1001.49,VALID,0,VALID,88.556,VALID,0,VALID,25.3779,VALID,341,VALID,0.613281,
2010-01-01, 02:22:04,VALID,1001.52,VALID,0,VALID,88.6171,VALID,0,VALID,25.3584,VALID,336,VALID,0.534766,
2010-01-01, 02:23:04,VALID,1001.49,VALID,0,VALID,88.6628,VALID,0,VALID,25.3195,VALID,337,VALID,0.782422,
2010-01-01, 02:24:04,VALID,1001.52,VALID,0,VALID,88.762,VALID,0,VALID,25.2611,VALID,354,VALID,0.863672,
2010-01-01, 02:25:04,VALID,1001.52,VALID,0,VALID,89.0214,VALID,0.100563,VALID,25.2007,VALID,342,VALID,0.551953,
2010-01-01, 02:26:04,VALID,1001.5,VALID,0,VALID,89.0595,VALID,0,VALID,25.1442,VALID,351,VALID,0.840625,
2010-01-01, 02:27:04,VALID,1001.51,VALID,0,VALID,89.2732,VALID,0,VALID,25.1053,VALID,343,VALID,0.764844,
2010-01-01, 02:28:04,VALID,1001.52,VALID,0,VALID,89.502,VALID,0.100563,VALID,25.0255,VALID,349,VALID,0.763672,
2010-01-01, 02:29:04,VALID,1001.49,VALID,0,VALID,89.8606,VALID,0,VALID,24.9904,VALID,352,VALID,0.763281,
2010-01-01, 02:30:04,VALID,1001.5,VALID,0,VALID,90.0818,VALID,0,VALID,24.9106,VALID,355,VALID,0.754687,
2010-01-01, 02:31:04,VALID,1001.48,VALID,0,VALID,90.448,VALID,0.100563,VALID,24.8308,VALID,358,VALID,0.896484,
2010-01-01, 02:32:04,VALID,1001.48,VALID,0,VALID,90.6082,VALID,0.100563,VALID,24.8113,VALID,354,VALID,0.762891,
2010-01-01, 02:33:04,VALID,1001.49,VALID,0,VALID,90.8447,VALID,0,VALID,24.7919,VALID,358,VALID,0.826172,
2010-01-01, 02:34:04,VALID,1001.5,VALID,0,VALID,90.921,VALID,0,VALID,24.7724,VALID,355,VALID,0.744531,
2010-01-01, 02:35:04,VALID,1001.52,VALID,0,VALID,91.0507,VALID,0,VALID,24.7529,VALID,347,VALID,0.751953,
2010-01-01, 02:36:04,VALID,1001.54,VALID,0,VALID,91.1651,VALID,0,VALID,24.7529,VALID,352,VALID,0.681641,
2010-01-01, 02:37:04,VALID,1001.55,VALID,0,VALID,91.188,VALID,0,VALID,24.7529,VALID,353,VALID,0.790625,
2010-01-01, 02:38:04,VALID,1001.56,VALID,0,VALID,91.188,VALID,0,VALID,24.7743,VALID,350,VALID,0.769531,
2010-01-01, 02:39:04,VALID,1001.62,VALID,0,VALID,91.1956,VALID,0,VALID,24.7529,VALID,350,VALID,0.703516,
2010-01-01, 02:40:04,VALID,1001.62,VALID,0,VALID,91.2567,VALID,0,VALID,24.7548,VALID,350,VALID,0.668359,
2010-01-01, 02:41:04,VALID,1001.61,VALID,0,VALID,91.3101,VALID,0,VALID,24.6945,VALID,354,VALID,0.624609,
2010-01-01, 02:42:04,VALID,1001.62,VALID,0,VALID,91.4703,VALID,0,VALID,24.6964,VALID,355,VALID,0.736719,
2010-01-01, 02:43:04,VALID,1001.63,VALID,0,VALID,91.6076,VALID,0,VALID,24.6769,VALID,357,VALID,0.855469,
2010-01-01, 02:44:04,VALID,1001.63,VALID,0,VALID,91.7297,VALID,0,VALID,24.638,VALID,358,VALID,1.02305,
2010-01-01, 02:45:04,VALID,1001.63,VALID,0,VALID,91.7678,VALID,0,VALID,24.638,VALID,357,VALID,0.849609,
2010-01-01, 02:46:04,VALID,1001.64,VALID,0,VALID,91.8365,VALID,0,VALID,24.6185,VALID,357,VALID,0.857031,
2010-01-01, 02:47:04,VALID,1001.67,VALID,0,VALID,91.9967,VALID,0,VALID,24.6185,VALID,8,VALID,0.694531,
2010-01-01, 02:48:04,VALID,1001.64,VALID,0,VALID,92.1035,VALID,0,VALID,24.6185,VALID,350,VALID,0.475,
2010-01-01, 02:49:04,VALID,1001.65,VALID,0,VALID,92.2332,VALID,0,VALID,24.599,VALID,9,VALID,0.814062,
2010-01-01, 02:50:04,VALID,1001.66,VALID,0,VALID,92.2484,VALID,0,VALID,24.599,VALID,354,VALID,0.663281,
2010-01-01, 02:51:04,VALID,1001.62,VALID,0,VALID,92.2789,VALID,0,VALID,24.599,VALID,354,VALID,0.854688,
2010-01-01, 02:52:04,VALID,1001.65,VALID,0,VALID,92.3629,VALID,0,VALID,24.599,VALID,354,VALID,0.805078,
2010-01-01, 02:53:04,VALID,1001.62,VALID,0,VALID,92.4086,VALID,0,VALID,24.6574,VALID,2,VALID,0.882422,
2010-01-01, 02:54:04,VALID,1001.6,VALID,0,VALID,92.4315,VALID,0,VALID,24.6574,VALID,2,VALID,0.796875,
2010-01-01, 02:55:04,VALID,1001.6,VALID,0,VALID,92.4391,VALID,0,VALID,24.675,VALID,355,VALID,0.720312,
2010-01-01, 02:56:04,VALID,1001.62,VALID,0,VALID,92.3857,VALID,0,VALID,24.6945,VALID,354,VALID,0.681641,
2010-01-01, 02:57:04,VALID,1001.65,VALID,0,VALID,92.3018,VALID,0,VALID,24.7335,VALID,2,VALID,0.998047,
2010-01-01, 02:58:04,VALID,1001.61,VALID,0,VALID,92.2408,VALID,0,VALID,24.7529,VALID,1,VALID,0.610937,
2010-01-01, 02:59:04,VALID,1001.61,VALID,0,VALID,92.134,VALID,0,VALID,24.7937,VALID,356,VALID,0.764063,
2010-01-01, 03:00:04,VALID,1001.61,VALID,0,VALID,92.073,VALID,0,VALID,24.8113,VALID,354,VALID,0.762109,
2010-01-01, 03:01:04,VALID,1001.65,VALID,0,VALID,91.989,VALID,0,VALID,24.8308,VALID,351,VALID,0.689453,
2010-01-01, 03:02:04,VALID,1001.68,VALID,0,VALID,92.0424,VALID,0,VALID,24.8892,VALID,5,VALID,0.995313,
2010-01-01, 03:03:04,VALID,1001.68,VALID,0,VALID,91.8594,VALID,0,VALID,24.9282,VALID,351,VALID,1.15547,
2010-01-01, 03:04:04,VALID,1001.65,VALID,0,VALID,91.6839,VALID,0,VALID,25.0079,VALID,356,VALID,1.01758,
2010-01-01, 03:05:04,VALID,1001.65,VALID,0,VALID,91.4169,VALID,0,VALID,25.0274,VALID,356,VALID,0.877344,
2010-01-01, 03:06:04,VALID,1001.65,VALID,0,VALID,91.333,VALID,0,VALID,24.9866,VALID,358,VALID,1.17148,
2010-01-01, 03:07:04,VALID,1001.64,VALID,0,VALID,91.2948,VALID,0,VALID,25.0274,VALID,359,VALID,1.12266,
2010-01-01, 03:08:04,VALID,1001.62,VALID,0,VALID,91.3177,VALID,0,VALID,25.0079,VALID,360,VALID,1.10977,
2010-01-01, 03:09:04,VALID,1001.58,VALID,0,VALID,91.3101,VALID,0,VALID,25.0274,VALID,355,VALID,0.815625,
2010-01-01, 03:10:04,VALID,1001.54,VALID,0,VALID,91.333,VALID,0,VALID,25.0274,VALID,355,VALID,0.937891,
2010-01-01, 03:11:04,VALID,1001.53,VALID,0,VALID,91.394,VALID,0,VALID,25.006,VALID,6,VALID,0.9375,
2010-01-01, 03:12:04,VALID,1001.52,VALID,0,VALID,91.4398,VALID,0,VALID,25.0644,VALID,354,VALID,1.24414,
2010-01-01, 03:13:04,VALID,1001.48,VALID,0,VALID,91.3024,VALID,0,VALID,25.1053,VALID,349,VALID,1.3125,
2010-01-01, 03:14:04,VALID,1001.49,VALID,0,VALID,91.1651,VALID,0,VALID,25.1442,VALID,359,VALID,1.38164,
2010-01-01, 03:15:04,VALID,1001.47,VALID,0,VALID,91.0507,VALID,0,VALID,25.1229,VALID,356,VALID,0.84375,
2010-01-01, 03:16:04,VALID,1001.44,VALID,0,VALID,91.0049,VALID,0,VALID,25.1442,VALID,357,VALID,1.14766,
2010-01-01, 03:17:04,VALID,1001.46,VALID,0,VALID,90.8218,VALID,0,VALID,25.1618,VALID,346,VALID,1.56719,
2010-01-01, 03:18:04,VALID,1001.45,VALID,0,VALID,90.5701,VALID,0,VALID,25.2007,VALID,354,VALID,1.15898,
2010-01-01, 03:19:04,VALID,1001.44,VALID,0,VALID,90.4327,VALID,0,VALID,25.2416,VALID,359,VALID,0.646484,
2010-01-01, 03:20:04,VALID,1001.43,VALID,0,VALID,90.4022,VALID,0,VALID,25.2221,VALID,355,VALID,1.14766,
2010-01-01, 03:21:04,VALID,1001.48,VALID,0,VALID,90.3565,VALID,0,VALID,25.2221,VALID,8,VALID,0.753906,
2010-01-01, 03:22:04,VALID,1001.49,VALID,0,VALID,90.2878,VALID,0.100563,VALID,25.2027,VALID,358,VALID,0.820703,
2010-01-01, 03:23:04,VALID,1001.51,VALID,0,VALID,90.3107,VALID,0,VALID,25.1618,VALID,359,VALID,0.682031,
2010-01-01, 03:24:04,VALID,1001.52,VALID,0,VALID,90.4862,VALID,0,VALID,25.1637,VALID,354,VALID,1.30039,
2010-01-01, 03:25:04,VALID,1001.53,VALID,0,VALID,90.4633,VALID,0,VALID,25.1442,VALID,353,VALID,0.746875,
2010-01-01, 03:26:04,VALID,1001.56,VALID,0,VALID,90.5243,VALID,0,VALID,25.1248,VALID,359,VALID,1.05898,
2010-01-01, 03:27:04,VALID,1001.56,VALID,0,VALID,90.6235,VALID,0,VALID,25.1248,VALID,357,VALID,0.949219,
2010-01-01, 03:28:04,VALID,1001.54,VALID,0,VALID,90.715,VALID,0,VALID,25.0839,VALID,3,VALID,0.957422,
2010-01-01, 03:29:04,VALID,1001.56,VALID,0,VALID,90.7226,VALID,0,VALID,25.1053,VALID,2,VALID,0.593359,
2010-01-01, 03:30:04,VALID,1001.55,VALID,0,VALID,90.9515,VALID,0,VALID,25.0663,VALID,354,VALID,1.32578,
2010-01-01, 03:31:04,VALID,1001.52,VALID,0,VALID,91.0125,VALID,0,VALID,25.0644,VALID,4,VALID,1.14063,
2010-01-01, 03:32:04,VALID,1001.52,VALID,0,VALID,91.0202,VALID,0,VALID,25.0663,VALID,354,VALID,0.955859,
2010-01-01, 03:33:04,VALID,1001.5,VALID,0,VALID,91.0278,VALID,0,VALID,25.0858,VALID,350,VALID,0.740234,
2010-01-01, 03:34:04,VALID,1001.5,VALID,0,VALID,91.0583,VALID,0,VALID,25.0663,VALID,357,VALID,0.758984,
2010-01-01, 03:35:04,VALID,1001.52,VALID,0,VALID,91.0507,VALID,0,VALID,25.0663,VALID,358,VALID,0.923437,
2010-01-01, 03:36:04,VALID,1001.51,VALID,0,VALID,91.0583,VALID,0,VALID,25.0663,VALID,356,VALID,0.849609,
2010-01-01, 03:37:04,VALID,1001.56,VALID,0,VALID,91.0354,VALID,0,VALID,25.045,VALID,353,VALID,0.767187,
2010-01-01, 03:38:04,VALID,1001.58,VALID,0,VALID,91.0431,VALID,0,VALID,25.045,VALID,1,VALID,0.830469,
2010-01-01, 03:39:04,VALID,1001.59,VALID,0,VALID,91.0431,VALID,0,VALID,25.045,VALID,358,VALID,0.541016,
2010-01-01, 03:40:04,VALID,1001.65,VALID,0,VALID,91.0507,VALID,0,VALID,25.0469,VALID,355,VALID,0.632031,
2010-01-01, 03:41:04,VALID,1001.68,VALID,0,VALID,90.9973,VALID,0,VALID,25.0274,VALID,355,VALID,0.782422,
2010-01-01, 03:42:04,VALID,1001.7,VALID,0,VALID,91.0431,VALID,0,VALID,25.0274,VALID,355,VALID,0.630469,
2010-01-01, 03:43:04,VALID,1001.74,VALID,0,VALID,91.0736,VALID,0,VALID,25.0274,VALID,355,VALID,0.742188,
2010-01-01, 03:44:04,VALID,1001.74,VALID,0,VALID,91.0888,VALID,0,VALID,24.9885,VALID,357,VALID,0.666797,
2010-01-01, 03:45:04,VALID,1001.76,VALID,0,VALID,91.1041,VALID,0,VALID,24.9885,VALID,357,VALID,0.754687,
2010-01-01, 03:46:04,VALID,1001.73,VALID,0,VALID,91.2262,VALID,0,VALID,24.969,VALID,360,VALID,0.983984,
2010-01-01, 03:47:04,VALID,1001.72,VALID,0,VALID,91.2567,VALID,0,VALID,24.9495,VALID,360,VALID,0.782812,
2010-01-01, 03:48:04,VALID,1001.71,VALID,0,VALID,91.2796,VALID,0,VALID,24.93,VALID,353,VALID,0.823047,
2010-01-01, 03:49:04,VALID,1001.72,VALID,0,VALID,91.4398,VALID,0,VALID,24.9106,VALID,341,VALID,0.516016,